Regional Weather Roundup
Issued by NWS

Home | Current Version | Previous Version | Graphics & Text | Print | Product List | Glossary On
Versions: 1 2 3 4 5 6 7 8 9 10 11 12 13 14 15 16 17 18 19 20 21 22 23 24 25 26 27 28 29 30 31 32 33 34 35 36 37 38 39 40 41 42 43 44 45 46 47 48 49 50
000
ASUS43 KLMK 121202
RWRKY
KENTUCKY REGIONAL WEATHER ROUNDUP
NATIONAL WEATHER SERVICE LOUISVILLE KY
800 AM EDT SAT JUL 12 2014

NOTE "FAIR" INDICATES FEW OR NO CLOUDS BELOW 12,000 FEET
WITH NO SIGNIFICANT WEATHER AND/OR OBSTRUCTIONS TO VISIBILITY.

KYZ001>023-026-027-061>063-070>075-121300-
WESTERN AND SOUTH CENTRAL KENTUCKY

CITY           SKY/WX    TMP DP  RH WIND       PRES   REMARKS
PADUCAH        SUNNY     75  69  81 CALM      30.15R
HENDERSON      PTSUNNY   73  66  78 S5        30.14S
OWENSBORO      PTSUNNY   71  67  87 S5        30.16R
HOPKINSVILLE   MOSUNNY   69  69  99 CALM      30.17R
BOWLING GREEN  MOSUNNY   68  64  87 CALM      30.17S
GLASGOW        NOT AVBL
$$

KYZ024-025-028>034-038-045-046-053-121300-
NORTH CENTRAL KENTUCKY

CITY           SKY/WX    TMP DP  RH WIND       PRES   REMARKS
LOUISVILLE/SDF MOSUNNY   69  63  81 SE3       30.16R
LOUISVILLE/LOU MOSUNNY   69  62  78 CALM      30.17R
FORT KNOX      MOSUNNY   67  64  93 S1        30.16S
$$

KYZ035>037-039>044-047>052-055>060-089>105-121300-
NORTHEAST KENTUCKY

CITY           SKY/WX    TMP DP  RH WIND       PRES   REMARKS
LEXINGTON      MOSUNNY   69  62  78 CALM      30.19R
COVINGTON      PTSUNNY   68  63  84 CALM      30.16F
FRANKFORT      MOSUNNY   66  63  90 CALM      30.17R
$$

KYZ054-064>069-076>088-106>120-121300-
SOUTHEAST KENTUCKY

CITY           SKY/WX    TMP DP  RH WIND       PRES   REMARKS
JACKSON        SUNNY     68  62  81 CALM      30.21R
LONDON         SUNNY     65  61  87 S3        30.21S FOG
SOMERSET       MOSUNNY   64  63  94 CALM      30.22R
MIDDLESBORO    MOSUNNY   63  61  92 CALM      30.24S
MONTICELLO     SUNNY     65  62  90 CALM      30.21S
$$



USA.gov is the U.S. government's official web portal to all federal, state and local government web resources and services.